Total_Precipitation_Accumulation
0.01 0.01 0.02 0.01 0.01 0.01 0.02 0.04 0.06 0.05 0.02 0.00 0.00 0.00 0.00 0.00 0.00 0.01 0.04 0.05 0.04 0.04 0.04 0.03 0.03 0.03 0.03 0.04 0.05 0.05 0.06 0.06 0.08 0.11 0.15 0.21 0.28 0.34
0.01 0.02 0.02 0.02 0.03 0.04 0.05 0.05 0.06 0.08 0.06 0.02 0.01 0.01 0.02 0.02 0.01 0.03 0.06 0.06 0.05 0.04 0.04 0.04 0.05 0.05 0.05 0.06 0.07 0.08 0.08 0.08 0.08 0.09 0.11 0.14 0.19 0.26
0.02 0.02 0.04 0.05 0.06 0.06 0.06 0.05 0.06 0.09 0.11 0.05 0.02 0.03 0.06 0.08 0.09 0.12 0.12 0.13 0.11 0.08 0.07 0.08 0.08 0.08 0.08 0.10 0.10 0.11 0.12 0.12 0.12 0.12 0.12 0.13 0.15 0.18
0.03 0.04 0.05 0.05 0.07 0.07 0.06 0.06 0.07 0.10 0.13 0.11 0.08 0.07 0.10 0.13 0.14 0.15 0.08 0.06 0.11 0.09 0.08 0.09 0.10 0.12 0.13 0.13 0.13 0.11 0.09 0.08 0.09 0.10 0.12 0.13 0.15 0.16
0.03 0.04 0.05 0.05 0.06 0.06 0.06 0.06 0.07 0.09 0.14 0.18 0.15 0.13 0.12 0.10 0.13 0.11 0.11 0.16 0.11 0.08 0.08 0.08 0.09 0.09 0.08 0.08 0.07 0.07 0.06 0.04 0.04 0.05 0.07 0.10 0.13 0.15
0.03 0.03 0.04 0.04 0.05 0.06 0.06 0.07 0.11 0.15 0.17 0.20 0.17 0.12 0.10 0.08 0.14 0.14 0.13 0.13 0.12 0.09 0.09 0.07 0.07 0.05 0.04 0.03 0.04 0.05 0.05 0.05 0.06 0.06 0.06 0.06 0.07 0.08
0.02 0.02 0.03 0.04 0.05 0.06 0.07 0.10 0.16 0.20 0.20 0.21 0.17 0.12 0.09 0.10 0.14 0.16 0.16 0.11 0.08 0.07 0.08 0.06 0.06 0.06 0.06 0.05 0.04 0.04 0.04 0.04 0.04 0.05 0.05 0.05 0.04 0.04
0.03 0.03 0.03 0.03 0.03 0.03 0.06 0.11 0.17 0.21 0.21 0.22 0.19 0.17 0.12 0.14 0.20 0.22 0.22 0.22 0.17 0.11 0.13 0.08 0.07 0.07 0.08 0.10 0.10 0.07 0.06 0.04 0.03 0.03 0.03 0.04 0.04 0.03
0.05 0.06 0.04 0.02 0.04 0.07 0.07 0.07 0.08 0.10 0.16 0.24 0.25 0.21 0.20 0.22 0.32 0.33 0.31 0.31 0.25 0.19 0.22 0.17 0.11 0.11 0.10 0.10 0.12 0.11 0.08 0.08 0.06 0.03 0.02 0.03 0.04 0.04
0.05 0.06 0.06 0.06 0.06 0.07 0.06 0.05 0.05 0.05 0.09 0.15 0.22 0.22 0.20 0.24 0.34 0.39 0.37 0.33 0.25 0.20 0.29 0.30 0.17 0.14 0.11 0.16 0.20 0.17 0.12 0.14 0.12 0.06 0.03 0.02 0.02 0.04
0.03 0.04 0.05 0.07 0.07 0.08 0.07 0.07 0.06 0.06 0.08 0.15 0.22 0.27 0.32 0.38 0.41 0.42 0.43 0.42 0.34 0.25 0.34 0.39 0.30 0.22 0.17 0.21 0.24 0.21 0.20 0.27 0.25 0.13 0.06 0.04 0.03 0.04
0.02 0.04 0.07 0.07 0.07 0.07 0.06 0.09 0.13 0.11 0.14 0.20 0.33 0.51 0.57 0.55 0.50 0.46 0.45 0.45 0.43 0.45 0.42 0.46 0.40 0.31 0.26 0.23 0.24 0.25 0.29 0.42 0.42 0.27 0.13 0.09 0.08 0.08
0.04 0.06 0.09 0.08 0.06 0.06 0.08 0.12 0.17 0.18 0.21 0.31 0.47 0.56 0.54 0.43 0.36 0.33 0.35 0.40 0.46 0.53 0.47 0.47 0.43 0.38 0.41 0.33 0.24 0.29 0.38 0.51 0.53 0.40 0.24 0.18 0.15 0.13
0.06 0.08 0.11 0.10 0.09 0.11 0.12 0.16 0.19 0.25 0.31 0.42 0.50 0.49 0.39 0.30 0.26 0.25 0.25 0.29 0.35 0.39 0.37 0.40 0.42 0.39 0.42 0.35 0.30 0.36 0.48 0.62 0.67 0.55 0.39 0.33 0.23 0.20
0.07 0.11 0.14 0.15 0.17 0.21 0.24 0.22 0.26 0.33 0.37 0.42 0.46 0.42 0.33 0.26 0.22 0.19 0.19 0.23 0.26 0.28 0.28 0.28 0.31 0.33 0.39 0.40 0.45 0.55 0.65 0.81 0.81 0.68 0.55 0.44 0.30 0.22
0.06 0.13 0.23 0.28 0.30 0.32 0.34 0.35 0.36 0.37 0.37 0.39 0.37 0.31 0.25 0.21 0.18 0.17 0.19 0.21 0.24 0.27 0.27 0.25 0.28 0.36 0.45 0.49 0.57 0.66 0.69 0.89 0.92 0.78 0.68 0.61 0.50 0.38
0.06 0.13 0.24 0.30 0.31 0.30 0.28 0.29 0.31 0.33 0.32 0.29 0.28 0.25 0.21 0.18 0.18 0.17 0.18 0.19 0.23 0.27 0.28 0.26 0.28 0.31 0.35 0.40 0.51 0.58 0.64 0.77 0.89 0.81 0.68 0.75 0.78 0.63
0.11 0.19 0.28 0.33 0.34 0.31 0.28 0.25 0.24 0.26 0.26 0.26 0.24 0.22 0.21 0.20 0.19 0.19 0.17 0.17 0.20 0.22 0.24 0.23 0.22 0.20 0.18 0.26 0.52 0.62 0.61 0.78 0.84 0.72 0.60 0.71 0.88 0.77
0.15 0.21 0.28 0.33 0.34 0.30 0.27 0.26 0.26 0.24 0.23 0.24 0.23 0.22 0.21 0.19 0.17 0.17 0.16 0.16 0.17 0.19 0.19 0.17 0.15 0.14 0.13 0.25 0.51 0.75 0.71 0.71 0.70 0.62 0.54 0.55 0.75 0.81
0.18 0.22 0.25 0.28 0.31 0.30 0.27 0.23 0.22 0.21 0.20 0.20 0.21 0.21 0.20 0.18 0.16 0.16 0.16 0.15 0.16 0.15 0.14 0.14 0.16 0.17 0.16 0.23 0.49 0.72 0.79 0.62 0.51 0.53 0.54 0.52 0.64 0.69
0.18 0.21 0.22 0.22 0.24 0.25 0.26 0.25 0.22 0.21 0.20 0.19 0.19 0.20 0.19 0.17 0.16 0.14 0.13 0.11 0.12 0.10 0.12 0.14 0.17 0.16 0.10 0.08 0.27 0.49 0.63 0.74 0.62 0.52 0.49 0.47 0.44 0.37
0.17 0.19 0.20 0.20 0.21 0.20 0.19 0.19 0.18 0.17 0.16 0.16 0.18 0.20 0.19 0.17 0.15 0.13 0.12 0.11 0.10 0.09 0.10 0.11 0.11 0.09 0.07 0.10 0.24 0.41 0.46 0.46 0.48 0.51 0.50 0.35 0.22 0.23
0.17 0.17 0.17 0.18 0.17 0.15 0.12 0.11 0.12 0.12 0.13 0.14 0.16 0.18 0.16 0.13 0.11 0.09 0.07 0.06 0.05 0.05 0.05 0.06 0.06 0.05 0.06 0.07 0.13 0.20 0.23 0.20 0.14 0.17 0.33 0.39 0.29 0.29